Regional Weather Roundup
Issued by NWS

Home | Current Version | Previous Version | Graphics & Text | Print | Product List | Glossary On
Versions: 1 2 3 4 5 6 7 8 9 10 11 12 13 14 15 16 17 18 19 20 21 22 23 24 25 26 27 28 29 30 31 32 33 34 35 36 37 38 39 40 41 42 43 44 45 46 47 48 49 50
000
ASUS43 KLOT 202310
RWRIL

ILLINOIS REGIONAL WEATHER ROUNDUP
NATIONAL WEATHER SERVICE CHICAGO/ROMEOVILLE IL
500 PM CST SAT DEC 20 2014

NOTE: "FAIR" INDICATES FEW OR NO CLOUDS BELOW 12,000 FEET WITH NO
SIGNIFICANT WEATHER AND/OR OBSTRUCTIONS TO VISIBILITY.

* THESE STATIONS ARE NOT UNDER NWS QUALITY CONTROL. THEY ALSO MAY NOT
  REPORT WEATHER SUCH AS PRECIPITATION OR FOG.

ILZ001-002-007-009-015-016-024-210000-
NORTHWEST ILLINOIS

CITY           SKY/WX    TMP DP  RH WIND       PRES   REMARKS
MOLINE         CLOUDY    34  28  79 SE5       30.21R HAZE    WCI  30
STERLING*      CLOUDY    32  25  74 SE5       30.23R WCI  27
SAVANNA*       CLOUDY    33  27  78 SE6       30.23R WCI  27
$$

ILZ003-004-008-010-011-017-018-210000-
NORTH CENTRAL ILLINOIS

CITY           SKY/WX    TMP DP  RH WIND       PRES   REMARKS
ROCKFORD       CLOUDY    31  25  78 SE6       30.25S WCI  25
FREEPORT*      CLOUDY    30  26  83 SE6       30.24R WCI  24
ROCHELLE*      CLOUDY    31  28  88 S7        30.24S WCI  24
DE KALB*       CLOUDY    30  26  85 S6        30.24S WCI  24
PERU*          CLOUDY    33  29  85 SE6       30.25R WCI  28
$$

ILZ005-006-012>014-019>023-210000-
NORTHEAST ILLINOIS

CITY           SKY/WX    TMP DP  RH WIND       PRES   REMARKS
CHICAGO-OHARE  FLURRIES  32  24  72 SW5       30.25R WCI  27
CHICAGO-MIDWAY CLOUDY    34  25  69 S7        30.26R WCI  28
AURORA         CLOUDY    32  26  78 SE6       30.25R WCI  26
LANSING*       CLOUDY    32  27  81 S3        30.27R
JOLIET*        CLOUDY    32  26  79 CALM      30.27R
WAUKEGAN       CLOUDY    30  24  78 SW5       30.24R WCI  25
DUPAGE AIRPORT CLOUDY    31  25  78 S5        30.24R WCI  26
KANKAKEE*      CLOUDY    32  28  84 S3        30.28R
WHEELING       CLOUDY    33  24  69 S5        30.27R WCI  29
MORRIS*        CLOUDY    32  29  88 S5        30.25S WCI  28
ROMEOVILLE*    CLOUDY    32  27  80 S6        30.26R WCI  26
NORTHERLY ISL    N/A     33  25  72 S5          N/A  WCI  29
$$

LMZ740>746-210000-
SOUTHERN LAKE MICHIGAN

STATION/POSITION SKY/WX   TEMP    WIND        PRES    VSBY  WAVE
                          AIR SEA DIR/SP/G                  HT/PER
                          (F)     (DEG/KT/KT) (MB)    (MI)  (FT/S)
WAUKEGAN HARBOR            32      CALM  /  3   N/A
HARRISON CRIB              33     190/  8/  9   N/A
BURNHAM HARBOR             33     200/  4/  6   N/A
CALUMET HARBOR             33     190/  4/  6 1023.6R
$$

ILZ025>027-034>036-040-047-049-050-058-095>099-210000-
WEST-CENTRAL ILLINOIS

CITY           SKY/WX    TMP DP  RH WIND       PRES   REMARKS
QUINCY         CLOUDY    36  33  89 SE6       30.20S FOG     WCI  31
GALESBURG*     CLOUDY    34  30  86 SE3       30.21S
MACOMB*        CLOUDY    35  32  91 SE7       30.24R FOG     WCI  29
JACKSONVILLE*  CLOUDY    40  34  80 S3        30.23R
PITTSFIELD*    CLOUDY    37  34  89 CALM      30.23S
$$

ILZ028>032-037-038-041>044-048-051>054-059>061-210000-
CENTRAL ILLINOIS

CITY           SKY/WX    TMP DP  RH WIND       PRES   REMARKS
PONTIAC        CLOUDY    33  30  88 S3        30.26S
BLOOMINGTON    MOCLDY    30  28  93 S6        30.25S WCI  24
DECATUR        CLOUDY    34  28  79 SE6       30.26S WCI  29
PEORIA         CLOUDY    35  27  72 SE6       30.24R WCI  30
LACON*         CLOUDY    32  27  80 SE3       30.24S
LINCOLN*       CLOUDY    35  30  82 SE6       30.26R WCI  30
SPRINGFIELD    CLOUDY    38  31  76 SE8       30.24S WCI  32
TAYLORVILLE    CLOUDY    36  32  87 SE6       30.25S WCI  31
$$

ILZ033-039-045-046-055>057-062-063-210000-
EAST-CENTRAL ILLINOIS

CITY           SKY/WX    TMP DP  RH WIND       PRES   REMARKS
CHAMPAIGN      CLOUDY    32  27  81 SE6       30.26S WCI  26
DANVILLE*      CLOUDY    32  27  83 SE3       30.25R
RANTOUL*       CLOUDY    34  29  83 S3        30.26S
MATTOON        CLOUDY    33  26  75 SE3       30.26R
PARIS*         CLOUDY    33  30  89 CALM      30.29R
$$

ILZ079-100>102-210000-
SOUTHWEST ILLINOIS

CITY           SKY/WX    TMP DP  RH WIND       PRES   REMARKS
ALTON          CLOUDY    39  32  75 SE6       30.24  WCI  35
BELLEVILLE     CLOUDY    40  35  81 E5        30.24S
CAHOKIA*       CLOUDY    42  34  73 SE6       30.24R
SPARTA*        CLOUDY    40  32  75 SE3       30.25S
$$

ILZ064>066-069>071-074>076-080>082-084>086-088>090-092>094-210000-
SOUTH-CENTRAL ILLINOIS

CITY           SKY/WX    TMP DP  RH WIND       PRES   REMARKS
CARBONDALE     CLOUDY    38  29  70 E3        30.25F
CAIRO*         MOCLDY    43  32  65 CALM      30.25F HAZE
EFFINGHAM*     MOCLDY    33  26  76 CALM      30.29R
MARION         PTCLDY    39  30  70 E6        30.26S WCI  35
MT. VERNON     CLOUDY    37  27  65 E3        30.27S
CENTRALIA*     CLOUDY    38  29  71 SE3       30.26R
SALEM*         CLOUDY    40  29  65 SE6       30.26S
METROPOLIS*    CLEAR     39  31  72 CALM      30.25S
$$

ILZ067-068-072-073-078-083-087-091-210000-
SOUTHEAST ILLINOIS

CITY           SKY/WX    TMP DP  RH WIND       PRES   REMARKS
LAWRENCEVILLE  MOCLDY    34  28  79 E3        30.29S
FLORA*         CLEAR     33  29  85 SE3       30.28S
FAIRFIELD*     CLOUDY    36  28  74 CALM      30.27S
HARRISBURG*    CLOUDY    38  30  71 E5        30.28S WCI  35
ROBINSON*      CLOUDY    34  27  76 E3        30.30S
CARMI*         CLEAR     33  28  83 NE6       30.27F WCI  27
$$

ABBREVIATIONS USED IN REMARKS
   TC - TEMPERATURE IN CELSIUS
  WCI - WIND CHILL INDEX
   HX - HEAT INDEX
  VSB - VISIBILITY
$$



USA.gov is the U.S. government's official web portal to all federal, state and local government web resources and services.